Regional Weather Roundup
Issued by NWS

Home | Current Version | Previous Version | Text Only | Print | Product List | Glossary Off
Versions: 1 2 3 4 5 6 7 8 9 10 11 12 13 14 15 16 17 18 19 20 21 22 23 24 25 26 27 28 29 30 31 32 33 34 35 36 37 38 39 40 41 42 43 44 45 46 47 48 49 50

000
ASUS44 KMEG 240010
RWRTN
TENNESSEE HOURLY STATE WEATHER ROUNDUP
NATIONAL WEATHER SERVICE MEMPHIS TN
700 PM CDT WED APR 23 2014

TNZ002-004-019-021-049-052-054-088>092-240100-
WEST TENNESSEE

CITY           SKY/WX    TMP DP  RH WIND       PRES   REMARKS
MEMPHIS INTL   PTCLDY    75  34  22 E7        29.93S
NWS MEMPHIS      N/A     73 N/A N/A MISG        N/A
JACKSON        CLEAR     72  34  24 NE3       29.95S
DYERSBURG      CLEAR     70  36  28 NE6       29.97S
UNION CITY     CLEAR     64  39  39 NE6       29.97S
PARIS          CLEAR     64  36  35 NE6       29.99S
LEXINGTON      CLEAR     68  34  28 N6        29.96R
SAVANNAH       CLEAR     72  37  27 CALM      29.95S
$$

TNZ008-025-027-028-033-062-065-066-240100-
NORTH MIDDLE TENNESSEE

CITY           SKY/WX    TMP DP  RH WIND       PRES   REMARKS
NASHVILLE      PTCLDY    64  35  34 N8        29.99S
DICKSON        CLEAR     64  32  29 NE7       29.99S
PORTLAND         N/A     63  34  34 N6        29.99F
CLARKSVILLE    CLEAR     65  35  33 NE5       29.99S
SMYRNA         CLEAR     65  34  31 N7        29.99S
MURFREESBORO   CLEAR     67  33  28 NE7       29.98S
COOKEVILLE     CLEAR     63  30  29 CALM      29.99R
GALLATIN       CLEAR     65  38  36 N7        30.00S
CROSSVILLE     CLEAR     61  26  26 N6        30.00R
$$

TNZ061-075-076-078-094-096-097-240100-
SOUTH MIDDLE TENNESSEE

CITY           SKY/WX    TMP DP  RH WIND       PRES   REMARKS
LEWISBURG      CLEAR     65  38  36 NE5       29.97F
FAYETTEVILLE   CLEAR     64  37  36 N7        29.97S
TULLAHOMA      CLEAR     63  34  34 NW5       29.99R
WINCHESTER     CLEAR     64  37  36 NE6       29.97S
MCMINNVILLE    CLEAR     64  36  34 N3        29.98S
COLUMBIA       CLEAR     64  46  52 E5        29.96S
SHELBYVILLE    CLEAR     64  41  42 N3        29.99S
$$

TNZ017-018-042-046-047-240100-
NORTHEAST TENNESSEE

CITY           SKY/WX    TMP DP  RH WIND       PRES   REMARKS
TRI CITIES     CLEAR     60  23  24 N6        29.97R
ELIZABETHTON   CLEAR     57  28  33 CALM      29.97R
$$

TNZ012-013-036-069-073-074-240100-
CENTRAL EAST TENNESSEE

CITY           SKY/WX    TMP DP  RH WIND       PRES   REMARKS
KNOXVILLE      CLEAR     63  32  31 NE6       29.95S
OAK RIDGE      CLEAR     67  28  23 E5        29.97S
$$

TNZ083-085-099-240100-
SOUTHEAST TENNESSEE

CITY           SKY/WX    TMP DP  RH WIND       PRES   REMARKS
CHATTANOOGA    PTCLDY    71  31  22 NE6       29.94R
$$

SKY/WX REPORTED AS FAIR MEANS FEW OR NO CLOUDS BELOW
12 THOUSAND FEET.




USA.gov is the U.S. government's official web portal to all federal, state and local government web resources and services.